TimeEDT,TemperatureF,Dew PointF,Humidity,Sea Level PressureIn,VisibilityMPH,Wind Direction,Wind SpeedMPH,Gust SpeedMPH,PrecipitationIn,Events,Conditions,WindDirDegrees,DateUTC
12:53 AM,39.9,25.0,55,30.15,10.0,Calm,Calm,-,N/A,,Clear,0,2013-03-10 05:53:00
1:53 AM,39.0,26.1,60,30.15,10.0,Calm,Calm,-,N/A,,Clear,0,2013-03-10 06:53:00
3:53 AM,39.0,26.1,60,30.13,10.0,Calm,Calm,-,N/A,,Partly Cloudy,0,2013-03-10 07:53:00
4:53 AM,37.0,26.1,65,30.11,10.0,Calm,Calm,-,N/A,,Scattered Clouds,0,2013-03-10 08:53:00
5:53 AM,37.0,28.9,73,30.12,10.0,Calm,Calm,-,N/A,,Overcast,0,2013-03-10 09:53:00
6:53 AM,37.9,30.0,73,30.12,10.0,Calm,Calm,-,N/A,,Mostly Cloudy,0,2013-03-10 10:53:00
8:53 AM,39.0,32.0,76,30.15,10.0,Calm,Calm,-,N/A,,Scattered Clouds,0,2013-03-10 12:53:00
9:53 AM,45.0,34.0,65,30.15,10.0,Calm,Calm,-,N/A,,Scattered Clouds,0,2013-03-10 13:53:00
10:53 AM,54.0,28.9,38,30.16,10.0,Calm,Calm,-,N/A,,Clear,0,2013-03-10 14:53:00
11:53 AM,60.1,30.9,33,30.14,10.0,West,3.5,-,N/A,,Clear,260,2013-03-10 15:53:00
12:53 PM,63.0,30.0,29,30.12,10.0,WSW,8.1,-,N/A,,Clear,240,2013-03-10 16:53:00
1:53 PM,68.0,28.9,23,30.09,10.0,West,3.5,-,N/A,,Clear,260,2013-03-10 17:53:00
2:53 PM,69.1,28.9,22,30.06,10.0,Variable,6.9,-,N/A,,Clear,0,2013-03-10 18:53:00
3:53 PM,71.1,30.0,22,30.02,10.0,Calm,Calm,-,N/A,,Clear,0,2013-03-10 19:53:00
4:53 PM,71.1,32.0,24,30.01,10.0,ESE,6.9,-,N/A,,Clear,120,2013-03-10 20:53:00
5:53 PM,70.0,30.0,23,29.99,10.0,SE,6.9,-,N/A,,Scattered Clouds,140,2013-03-10 21:53:00
6:53 PM,68.0,28.9,23,29.99,10.0,SSE,10.4,18.4,N/A,,Clear,150,2013-03-10 22:53:00
7:53 PM,63.0,28.9,28,30.03,10.0,SSE,11.5,20.7,N/A,,Scattered Clouds,150,2013-03-10 23:53:00
8:53 PM,60.1,28.0,30,30.04,10.0,SSE,11.5,19.6,N/A,,Clear,160,2013-03-11 00:53:00
9:53 PM,57.9,28.9,33,30.02,10.0,SSE,9.2,-,N/A,,Clear,150,2013-03-11 01:53:00
10:53 PM,55.9,28.9,36,30.02,10.0,SSW,4.6,-,N/A,,Clear,210,2013-03-11 02:53:00
11:53 PM,55.9,28.0,34,30.01,10.0,Calm,Calm,-,N/A,,Clear,0,2013-03-11 03:53:00
12:53 AM,55.9,28.9,36,29.99,10.0,SE,3.5,-,N/A,,Clear,140,2013-03-11 04:53:00